Location: Invercargill
(46.4000°S, 168.3500°E)
Time: 02:13:48
(UTC+12:00)

deb Explorer IX - Visible Passes

Search period start: 24 July 2019 00:00
Search period end: 03 August 2019 00:00
Orbit: 539 x 1112 km, 38.8° (Epoch: 22 July)

Date Brightness Start Highest point End Pass type
(mag) Time Alt. Az. Time Alt. Az. Time Alt. Az.
24 Jul ? 18:03:38 10° W 18:10:03 32° NNW 18:16:20 10° NE visible
24 Jul ? 19:52:56 10° WNW 19:56:11 13° NW 19:59:23 10° NNW visible
25 Jul ? 19:30:55 10° WNW 19:34:07 13° NW 19:37:17 10° NNW visible
26 Jul ? 19:08:55 10° WNW 19:12:03 13° NW 19:15:10 10° NNW visible
27 Jul ? 18:46:57 10° WNW 18:49:59 13° NW 18:53:00 10° NNW visible
28 Jul ? 18:25:01 10° WNW 18:27:54 13° NW 18:30:48 10° NNW visible
29 Jul ? 18:03:08 10° WNW 18:05:49 12° NW 18:08:32 10° NNW visible
